Precipitable_Water
1.05 1.06 1.10 1.15 1.21 1.23 1.26 1.29 1.30 1.32 1.31 1.28 1.27 1.29 1.31 1.33 1.34 1.34 1.36 1.35 1.33 1.25 1.21 1.24 1.27 1.29 1.31 1.32 1.31 1.31 1.27 1.25 1.25 1.24 1.23 1.22 1.24 1.23 1.23 1.21 1.16 1.14 1.13 1.09 1.06 1.02 0.97 0.91 0.89 0.87 0.85 0.75 0.70 0.68 0.63 0.60 0.58 0.56 0.55 0.57 0.55 0.58 0.56 0.53 0.49 0.58 0.64 0.65 0.62 0.54 0.51 0.54 0.54 0.49 0.44 0.42 0.43 0.46 0.42 0.45 0.43 0.41 0.41 0.40 0.43
1.01 1.02 1.05 1.11 1.16 1.22 1.25 1.30 1.34 1.34 1.30 1.27 1.25 1.27 1.30 1.32 1.35 1.36 1.33 1.34 1.32 1.26 1.20 1.22 1.26 1.28 1.28 1.28 1.29 1.29 1.26 1.22 1.22 1.23 1.21 1.20 1.20 1.22 1.20 1.16 1.13 1.11 1.10 1.04 1.00 0.97 0.93 0.88 0.84 0.82 0.79 0.72 0.71 0.67 0.62 0.58 0.54 0.51 0.51 0.52 0.53 0.56 0.56 0.52 0.51 0.60 0.56 0.58 0.57 0.52 0.52 0.57 0.50 0.44 0.40 0.42 0.42 0.38 0.37 0.39 0.40 0.42 0.39 0.39 0.41
0.99 1.03 1.05 1.08 1.12 1.18 1.24 1.27 1.30 1.30 1.26 1.25 1.23 1.25 1.29 1.33 1.36 1.34 1.33 1.32 1.33 1.29 1.21 1.20 1.23 1.26 1.25 1.26 1.27 1.26 1.24 1.21 1.21 1.22 1.21 1.19 1.17 1.18 1.18 1.13 1.10 1.07 1.06 1.03 0.98 0.94 0.90 0.86 0.83 0.82 0.79 0.76 0.74 0.68 0.66 0.60 0.55 0.50 0.51 0.51 0.51 0.56 0.54 0.51 0.52 0.56 0.53 0.50 0.54 0.53 0.56 0.51 0.43 0.42 0.39 0.41 0.40 0.37 0.35 0.39 0.38 0.38 0.41 0.42 0.40
1.03 1.02 1.03 1.07 1.12 1.15 1.17 1.20 1.23 1.26 1.22 1.23 1.22 1.25 1.29 1.32 1.36 1.35 1.34 1.34 1.30 1.29 1.23 1.19 1.21 1.23 1.23 1.23 1.24 1.24 1.22 1.19 1.19 1.22 1.21 1.18 1.16 1.14 1.14 1.11 1.08 1.06 1.05 1.03 0.98 0.94 0.90 0.87 0.86 0.85 0.82 0.79 0.76 0.72 0.68 0.62 0.54 0.52 0.51 0.51 0.53 0.55 0.56 0.53 0.58 0.55 0.57 0.53 0.51 0.55 0.54 0.45 0.39 0.41 0.40 0.37 0.37 0.40 0.39 0.39 0.39 0.41 0.42 0.43 0.44
1.01 1.00 1.00 1.03 1.07 1.09 1.10 1.15 1.14 1.16 1.19 1.22 1.23 1.26 1.29 1.32 1.35 1.34 1.33 1.31 1.31 1.27 1.21 1.18 1.18 1.20 1.20 1.20 1.21 1.20 1.18 1.17 1.17 1.19 1.20 1.19 1.15 1.13 1.11 1.08 1.06 1.05 1.03 1.01 0.98 0.95 0.92 0.90 0.90 0.86 0.83 0.80 0.76 0.71 0.66 0.60 0.53 0.51 0.48 0.49 0.51 0.55 0.54 0.54 0.55 0.60 0.57 0.51 0.56 0.56 0.49 0.41 0.40 0.39 0.38 0.36 0.42 0.43 0.44 0.44 0.42 0.39 0.42 0.43 0.43
0.98 0.97 0.98 1.00 0.99 1.02 1.05 1.09 1.10 1.09 1.14 1.20 1.23 1.27 1.30 1.31 1.33 1.35 1.33 1.29 1.29 1.27 1.19 1.13 1.13 1.17 1.21 1.22 1.22 1.20 1.18 1.15 1.16 1.17 1.18 1.17 1.14 1.12 1.09 1.07 1.05 1.02 0.99 0.98 0.96 0.92 0.90 0.89 0.89 0.85 0.82 0.77 0.72 0.67 0.63 0.54 0.50 0.48 0.49 0.51 0.55 0.53 0.52 0.51 0.59 0.59 0.54 0.58 0.59 0.47 0.42 0.38 0.38 0.37 0.37 0.36 0.35 0.36 0.40 0.43 0.44 0.48 0.48 0.47 0.45
0.95 0.94 0.96 0.97 0.96 0.97 1.01 1.03 1.05 1.06 1.12 1.17 1.24 1.29 1.30 1.32 1.32 1.32 1.33 1.30 1.27 1.24 1.19 1.12 1.13 1.18 1.20 1.22 1.20 1.19 1.16 1.15 1.15 1.16 1.15 1.15 1.13 1.09 1.07 1.05 1.03 1.00 0.98 0.96 0.93 0.90 0.88 0.87 0.86 0.82 0.77 0.73 0.68 0.63 0.56 0.50 0.47 0.50 0.53 0.53 0.53 0.51 0.47 0.53 0.57 0.55 0.56 0.60 0.54 0.46 0.39 0.38 0.38 0.37 0.39 0.38 0.38 0.37 0.37 0.39 0.40 0.44 0.45 0.45 0.43
0.90 0.91 0.92 0.94 0.93 0.92 0.97 1.04 1.06 1.08 1.14 1.20 1.24 1.27 1.31 1.32 1.32 1.35 1.33 1.29 1.26 1.24 1.18 1.11 1.12 1.19 1.20 1.20 1.20 1.18 1.15 1.12 1.13 1.13 1.14 1.12 1.11 1.07 1.06 1.05 1.02 0.99 0.97 0.93 0.90 0.87 0.85 0.84 0.83 0.78 0.73 0.69 0.65 0.59 0.52 0.48 0.50 0.52 0.54 0.52 0.50 0.50 0.52 0.54 0.55 0.57 0.57 0.53 0.47 0.41 0.38 0.37 0.36 0.39 0.43 0.38 0.38 0.40 0.42 0.38 0.35 0.38 0.41 0.45 0.46
0.84 0.85 0.87 0.90 0.90 0.92 1.00 1.06 1.08 1.11 1.14 1.18 1.21 1.24 1.29 1.31 1.32 1.34 1.33 1.30 1.29 1.27 1.21 1.14 1.11 1.15 1.19 1.19 1.18 1.16 1.13 1.10 1.10 1.11 1.12 1.11 1.10 1.06 1.05 1.04 1.01 0.97 0.94 0.91 0.90 0.88 0.85 0.85 0.80 0.75 0.70 0.66 0.61 0.55 0.53 0.53 0.53 0.53 0.52 0.49 0.49 0.52 0.52 0.56 0.55 0.55 0.52 0.47 0.44 0.41 0.36 0.35 0.35 0.37 0.37 0.38 0.39 0.43 0.48 0.43 0.38 0.42 0.45 0.43 0.46
0.78 0.80 0.82 0.84 0.87 0.94 1.01 1.05 1.05 1.11 1.13 1.13 1.16 1.22 1.27 1.31 1.32 1.33 1.33 1.31 1.30 1.28 1.20 1.14 1.11 1.13 1.14 1.15 1.15 1.12 1.10 1.09 1.08 1.10 1.13 1.12 1.09 1.06 1.06 1.04 1.01 0.97 0.92 0.89 0.89 0.87 0.84 0.81 0.76 0.70 0.66 0.61 0.55 0.53 0.52 0.52 0.54 0.53 0.48 0.50 0.52 0.53 0.55 0.54 0.52 0.51 0.49 0.44 0.41 0.37 0.33 0.33 0.36 0.39 0.40 0.42 0.44 0.44 0.39 0.43 0.43 0.45 0.43 0.43 0.44
0.74 0.76 0.77 0.82 0.88 0.94 1.01 1.02 1.06 1.07 1.10 1.13 1.17 1.21 1.26 1.30 1.32 1.33 1.32 1.30 1.28 1.26 1.18 1.10 1.09 1.13 1.13 1.13 1.11 1.09 1.09 1.09 1.07 1.10 1.11 1.11 1.09 1.07 1.05 1.03 1.00 0.96 0.92 0.89 0.86 0.83 0.79 0.75 0.72 0.66 0.61 0.58 0.55 0.53 0.51 0.50 0.49 0.51 0.54 0.55 0.58 0.59 0.55 0.52 0.51 0.51 0.47 0.42 0.40 0.35 0.33 0.34 0.37 0.41 0.40 0.43 0.44 0.41 0.43 0.44 0.43 0.43 0.42 0.40 0.36
0.72 0.74 0.77 0.83 0.91 0.96 0.97 1.01 1.04 1.05 1.09 1.11 1.15 1.20 1.26 1.30 1.31 1.31 1.31 1.29 1.29 1.26 1.15 1.09 1.10 1.13 1.13 1.13 1.11 1.09 1.09 1.09 1.09 1.08 1.09 1.08 1.09 1.09 1.08 1.04 1.00 0.95 0.92 0.89 0.85 0.80 0.75 0.71 0.69 0.65 0.61 0.59 0.57 0.54 0.53 0.52 0.52 0.53 0.53 0.53 0.55 0.55 0.56 0.57 0.55 0.50 0.46 0.40 0.37 0.34 0.34 0.35 0.39 0.40 0.40 0.42 0.43 0.43 0.43 0.43 0.44 0.44 0.41 0.39 0.38
0.71 0.73 0.81 0.86 0.91 0.95 0.97 1.01 1.02 1.03 1.05 1.11 1.16 1.19 1.24 1.28 1.29 1.30 1.29 1.31 1.30 1.21 1.11 1.08 1.07 1.11 1.13 1.11 1.09 1.10 1.08 1.06 1.09 1.07 1.06 1.06 1.07 1.09 1.08 1.05 0.99 0.94 0.91 0.88 0.83 0.78 0.74 0.69 0.68 0.65 0.62 0.60 0.58 0.57 0.57 0.55 0.55 0.55 0.56 0.55 0.51 0.50 0.52 0.53 0.55 0.58 0.48 0.40 0.37 0.36 0.34 0.37 0.39 0.41 0.42 0.43 0.44 0.43 0.46 0.45 0.47 0.49 0.46 0.41 0.40
0.72 0.77 0.84 0.88 0.93 0.97 1.01 1.01 0.99 1.00 1.06 1.12 1.15 1.18 1.23 1.26 1.30 1.33 1.33 1.31 1.26 1.16 1.10 1.06 1.08 1.10 1.12 1.11 1.11 1.11 1.08 1.05 1.06 1.06 1.05 1.03 1.05 1.08 1.08 1.05 1.00 0.94 0.90 0.86 0.83 0.78 0.74 0.70 0.69 0.64 0.66 0.62 0.61 0.62 0.61 0.58 0.58 0.60 0.60 0.55 0.52 0.51 0.49 0.47 0.48 0.47 0.43 0.42 0.38 0.36 0.38 0.39 0.41 0.45 0.46 0.46 0.43 0.41 0.43 0.45 0.47 0.46 0.45 0.42 0.41
0.76 0.82 0.87 0.92 0.97 0.98 1.00 0.99 0.98 1.00 1.05 1.10 1.14 1.18 1.24 1.28 1.30 1.31 1.29 1.26 1.22 1.12 1.05 1.03 1.07 1.10 1.13 1.15 1.14 1.10 1.07 1.06 1.06 1.06 1.05 1.02 1.04 1.07 1.08 1.06 1.00 0.94 0.91 0.86 0.84 0.80 0.76 0.73 0.69 0.66 0.68 0.62 0.64 0.66 0.64 0.62 0.63 0.63 0.60 0.57 0.55 0.53 0.50 0.49 0.46 0.41 0.37 0.36 0.41 0.40 0.43 0.43 0.44 0.47 0.50 0.47 0.44 0.45 0.48 0.48 0.48 0.45 0.42 0.40 0.37
0.79 0.86 0.89 0.94 0.96 0.97 0.98 0.99 1.00 1.00 1.04 1.09 1.13 1.18 1.24 1.29 1.28 1.30 1.28 1.26 1.22 1.14 1.07 1.05 1.04 1.08 1.14 1.16 1.13 1.09 1.08 1.07 1.07 1.06 1.04 1.02 1.03 1.05 1.06 1.05 0.98 0.93 0.90 0.87 0.85 0.82 0.79 0.74 0.70 0.69 0.70 0.64 0.66 0.67 0.66 0.66 0.66 0.64 0.61 0.59 0.56 0.56 0.54 0.54 0.49 0.42 0.42 0.42 0.43 0.47 0.49 0.50 0.47 0.52 0.53 0.49 0.48 0.50 0.48 0.46 0.45 0.44 0.42 0.38 0.36
0.81 0.85 0.86 0.91 0.93 0.97 1.00 1.02 1.00 0.99 1.03 1.07 1.12 1.18 1.24 1.28 1.31 1.32 1.25 1.18 1.11 1.05 0.99 0.99 1.03 1.07 1.13 1.16 1.13 1.11 1.08 1.07 1.06 1.05 1.03 1.01 1.00 1.00 1.01 1.02 0.97 0.92 0.89 0.88 0.85 0.83 0.81 0.76 0.72 0.73 0.72 0.69 0.69 0.66 0.66 0.68 0.69 0.66 0.63 0.59 0.57 0.56 0.56 0.54 0.45 0.39 0.38 0.39 0.43 0.44 0.43 0.43 0.43 0.44 0.46 0.44 0.44 0.48 0.47 0.44 0.43 0.45 0.42 0.37 0.36
0.81 0.82 0.84 0.90 0.93 0.99 1.01 1.01 0.98 0.98 1.03 1.06 1.12 1.20 1.28 1.32 1.32 1.31 1.21 1.12 1.03 0.99 0.98 0.99 1.03 1.08 1.13 1.16 1.16 1.10 1.07 1.08 1.06 1.04 1.02 1.00 0.99 0.97 0.99 1.00 0.97 0.93 0.89 0.87 0.84 0.83 0.82 0.78 0.78 0.79 0.73 0.72 0.67 0.66 0.67 0.67 0.69 0.68 0.63 0.60 0.56 0.55 0.55 0.53 0.42 0.37 0.36 0.38 0.40 0.41 0.41 0.41 0.41 0.41 0.42 0.42 0.41 0.41 0.39 0.37 0.42 0.44 0.40 0.37 0.33
0.78 0.80 0.84 0.89 0.94 0.97 0.99 0.99 0.98 0.99 1.01 1.07 1.14 1.18 1.22 1.25 1.26 1.25 1.17 1.10 1.04 1.01 0.98 0.96 0.99 1.07 1.14 1.16 1.16 1.13 1.08 1.07 1.06 1.04 1.03 1.01 0.98 0.97 0.99 0.98 0.97 0.95 0.89 0.87 0.85 0.84 0.85 0.82 0.81 0.76 0.72 0.74 0.68 0.68 0.68 0.67 0.68 0.68 0.63 0.59 0.56 0.56 0.54 0.49 0.41 0.37 0.38 0.39 0.41 0.42 0.42 0.42 0.43 0.44 0.45 0.43 0.42 0.41 0.42 0.40 0.41 0.40 0.36 0.35 0.34
0.79 0.84 0.89 0.93 0.97 0.99 1.00 0.99 1.01 1.03 1.05 1.11 1.16 1.18 1.22 1.21 1.18 1.14 1.11 1.08 1.05 1.01 0.96 0.95 0.96 1.04 1.11 1.12 1.11 1.12 1.08 1.06 1.05 1.04 1.04 1.03 1.00 0.98 1.01 0.96 0.95 0.94 0.90 0.88 0.85 0.86 0.87 0.83 0.78 0.75 0.75 0.74 0.70 0.69 0.68 0.67 0.66 0.67 0.63 0.59 0.58 0.57 0.54 0.50 0.48 0.43 0.43 0.41 0.43 0.45 0.45 0.48 0.48 0.48 0.50 0.51 0.46 0.44 0.42 0.41 0.40 0.39 0.37 0.35 0.35
0.90 0.93 0.95 0.97 0.99 1.01 1.04 1.05 1.06 1.10 1.13 1.13 1.16 1.18 1.18 1.16 1.17 1.17 1.14 1.12 1.09 1.03 0.97 0.94 0.98 1.04 1.09 1.11 1.10 1.10 1.09 1.06 1.05 1.05 1.05 1.04 1.01 0.99 1.00 0.98 0.98 0.95 0.90 0.88 0.86 0.84 0.85 0.82 0.78 0.77 0.77 0.73 0.69 0.67 0.67 0.65 0.63 0.65 0.63 0.60 0.61 0.60 0.55 0.50 0.50 0.46 0.47 0.48 0.47 0.48 0.51 0.51 0.53 0.52 0.51 0.52 0.51 0.47 0.42 0.38 0.38 0.40 0.39 0.36 0.35
0.97 0.97 0.98 1.00 1.03 1.05 1.06 1.09 1.13 1.14 1.16 1.17 1.15 1.15 1.21 1.26 1.25 1.21 1.18 1.14 1.11 1.07 1.02 0.97 0.98 1.01 1.04 1.10 1.11 1.10 1.10 1.08 1.07 1.07 1.06 1.03 1.00 1.00 0.98 0.98 1.00 0.97 0.93 0.91 0.86 0.84 0.87 0.84 0.83 0.80 0.73 0.68 0.67 0.67 0.66 0.63 0.59 0.59 0.64 0.64 0.63 0.57 0.50 0.51 0.55 0.48 0.46 0.48 0.47 0.46 0.47 0.48 0.50 0.51 0.50 0.49 0.46 0.44 0.44 0.43 0.40 0.38 0.40 0.41 0.38
1.03 1.03 1.04 1.04 1.07 1.08 1.10 1.11 1.12 1.15 1.14 1.15 1.15 1.13 1.15 1.17 1.18 1.18 1.14 1.10 1.06 1.02 0.98 0.96 0.98 1.01 0.99 1.02 1.10 1.14 1.12 1.09 1.09 1.07 1.05 1.03 1.00 1.00 0.99 1.00 1.03 1.04 0.97 0.90 0.86 0.86 0.87 0.86 0.86 0.77 0.68 0.66 0.68 0.67 0.65 0.62 0.60 0.59 0.63 0.65 0.61 0.55 0.50 0.52 0.54 0.52 0.44 0.41 0.41 0.43 0.44 0.44 0.44 0.46 0.48 0.47 0.45 0.44 0.43 0.44 0.44 0.44 0.43 0.42 0.42
1.12 1.10 1.09 1.10 1.11 1.12 1.13 1.14 1.16 1.17 1.17 1.18 1.17 1.15 1.17 1.21 1.22 1.19 1.15 1.11 1.07 1.04 1.02 1.01 1.02 1.00 0.97 1.00 1.07 1.10 1.12 1.11 1.10 1.08 1.06 1.03 1.00 0.99 1.00 1.04 1.04 1.02 0.97 0.90 0.87 0.85 0.91 0.91 0.87 0.75 0.69 0.68 0.67 0.66 0.64 0.62 0.60 0.60 0.62 0.62 0.59 0.54 0.51 0.51 0.50 0.49 0.48 0.45 0.44 0.43 0.43 0.44 0.44 0.45 0.46 0.49 0.49 0.45 0.44 0.45 0.44 0.43 0.44 0.44 0.44
1.15 1.13 1.13 1.14 1.15 1.16 1.17 1.17 1.18 1.21 1.22 1.21 1.19 1.20 1.22 1.25 1.22 1.22 1.20 1.17 1.13 1.09 1.08 1.07 1.05 1.05 1.05 1.07 1.08 1.10 1.10 1.10 1.10 1.09 1.07 1.04 1.01 1.00 1.00 1.01 0.99 0.99 0.97 0.95 0.90 0.94 0.98 0.93 0.84 0.72 0.68 0.67 0.65 0.65 0.63 0.61 0.61 0.62 0.61 0.61 0.59 0.54 0.51 0.50 0.49 0.50 0.48 0.45 0.44 0.44 0.42 0.41 0.42 0.44 0.49 0.52 0.49 0.44 0.44 0.47 0.45 0.42 0.43 0.44 0.43
1.18 1.18 1.19 1.20 1.21 1.21 1.20 1.21 1.23 1.25 1.26 1.27 1.25 1.27 1.27 1.27 1.24 1.23 1.21 1.18 1.16 1.15 1.15 1.14 1.14 1.14 1.12 1.15 1.16 1.14 1.12 1.13 1.13 1.11 1.08 1.04 1.02 0.99 0.98 0.99 0.99 0.98 0.99 0.95 0.89 0.98 0.97 0.86 0.77 0.71 0.68 0.68 0.67 0.67 0.65 0.65 0.64 0.63 0.63 0.62 0.58 0.53 0.52 0.51 0.52 0.50 0.47 0.46 0.44 0.42 0.41 0.41 0.42 0.45 0.49 0.49 0.45 0.40 0.36 0.34 0.34 0.36 0.39 0.41 0.40
1.17 1.21 1.21 1.22 1.23 1.22 1.20 1.20 1.21 1.25 1.29 1.30 1.30 1.30 1.30 1.28 1.25 1.22 1.21 1.18 1.15 1.14 1.16 1.15 1.13 1.12 1.10 1.15 1.19 1.16 1.11 1.12 1.11 1.08 1.05 1.02 1.00 0.98 0.98 1.00 0.99 0.97 0.97 0.94 0.98 0.99 0.90 0.82 0.77 0.74 0.70 0.69 0.70 0.70 0.69 0.68 0.66 0.64 0.63 0.63 0.59 0.55 0.56 0.54 0.51 0.47 0.47 0.48 0.48 0.45 0.44 0.44 0.46 0.47 0.47 0.44 0.40 0.36 0.34 0.34 0.34 0.34 0.37 0.41 0.41
1.18 1.19 1.21 1.21 1.19 1.19 1.18 1.20 1.20 1.21 1.24 1.26 1.27 1.27 1.27 1.28 1.25 1.22 1.21 1.20 1.17 1.14 1.13 1.11 1.10 1.09 1.08 1.10 1.11 1.13 1.12 1.12 1.12 1.08 1.05 1.04 1.02 1.02 1.04 1.03 0.99 0.97 0.96 0.98 0.98 0.94 0.86 0.82 0.77 0.74 0.73 0.74 0.75 0.74 0.73 0.71 0.67 0.64 0.64 0.65 0.61 0.57 0.56 0.55 0.53 0.53 0.53 0.53 0.51 0.50 0.50 0.49 0.47 0.47 0.47 0.42 0.38 0.35 0.34 0.33 0.33 0.33 0.35 0.35 0.35
1.18 1.20 1.23 1.24 1.22 1.24 1.23 1.21 1.22 1.23 1.23 1.24 1.26 1.26 1.21 1.20 1.20 1.22 1.27 1.27 1.22 1.18 1.16 1.16 1.18 1.20 1.17 1.13 1.09 1.07 1.11 1.12 1.15 1.17 1.15 1.13 1.11 1.08 1.08 1.06 1.02 0.98 1.00 0.97 0.95 0.91 0.86 0.81 0.76 0.75 0.74 0.74 0.74 0.72 0.72 0.71 0.70 0.69 0.68 0.69 0.66 0.62 0.60 0.59 0.56 0.54 0.54 0.53 0.52 0.52 0.50 0.49 0.47 0.46 0.42 0.36 0.35 0.34 0.35 0.34 0.36 0.35 0.34 0.34 0.34
1.07 1.09 1.15 1.19 1.21 1.21 1.22 1.21 1.20 1.19 1.19 1.18 1.19 1.22 1.27 1.26 1.24 1.18 1.16 1.21 1.23 1.24 1.22 1.17 1.20 1.23 1.21 1.20 1.21 1.17 1.14 1.23 1.29 1.21 1.17 1.19 1.20 1.18 1.14 1.08 1.02 1.01 1.01 0.98 0.91 0.84 0.80 0.76 0.75 0.75 0.76 0.74 0.71 0.72 0.72 0.71 0.70 0.69 0.69 0.69 0.68 0.66 0.64 0.62 0.59 0.56 0.54 0.53 0.52 0.51 0.50 0.49 0.46 0.43 0.40 0.37 0.36 0.36 0.36 0.35 0.36 0.37 0.34 0.32 0.34
1.05 1.09 1.14 1.17 1.18 1.13 1.11 1.11 1.12 1.13 1.13 1.12 1.13 1.13 1.15 1.22 1.23 1.21 1.18 1.17 1.19 1.20 1.21 1.26 1.29 1.29 1.26 1.23 1.24 1.19 1.19 1.17 1.23 1.25 1.27 1.26 1.23 1.23 1.15 1.08 1.06 1.04 0.99 0.89 0.82 0.78 0.76 0.74 0.74 0.75 0.75 0.76 0.75 0.73 0.72 0.71 0.70 0.69 0.69 0.69 0.67 0.67 0.66 0.64 0.61 0.58 0.55 0.52 0.51 0.52 0.53 0.51 0.47 0.45 0.43 0.42 0.41 0.40 0.40 0.39 0.37 0.34 0.31 0.33 0.35
1.01 1.03 1.06 1.06 1.06 1.06 1.06 1.06 1.06 1.05 1.07 1.08 1.08 1.08 1.08 1.09 1.13 1.18 1.17 1.15 1.17 1.21 1.25 1.26 1.26 1.28 1.28 1.29 1.23 1.25 1.25 1.21 1.22 1.26 1.30 1.30 1.26 1.21 1.15 1.13 1.11 1.05 0.98 0.89 0.80 0.78 0.78 0.76 0.75 0.76 0.76 0.74 0.74 0.74 0.73 0.72 0.72 0.71 0.70 0.71 0.71 0.68 0.65 0.62 0.61 0.57 0.53 0.52 0.52 0.52 0.52 0.51 0.50 0.49 0.47 0.46 0.45 0.44 0.42 0.39 0.38 0.36 0.33 0.32 0.34
1.01 1.01 1.01 1.01 1.00 1.00 1.00 1.00 1.00 1.02 1.01 1.01 1.03 1.05 1.03 1.02 1.01 1.03 1.12 1.18 1.20 1.22 1.26 1.27 1.26 1.27 1.25 1.25 1.27 1.26 1.21 1.21 1.23 1.26 1.28 1.27 1.24 1.18 1.16 1.14 1.08 1.02 0.94 0.83 0.78 0.77 0.78 0.78 0.77 0.76 0.76 0.76 0.77 0.76 0.76 0.76 0.76 0.76 0.75 0.73 0.71 0.68 0.66 0.62 0.60 0.57 0.55 0.54 0.53 0.52 0.52 0.52 0.51 0.51 0.50 0.49 0.46 0.43 0.43 0.40 0.37 0.35 0.35 0.34 0.34
1.01 1.00 0.98 0.99 0.98 0.98 0.99 1.00 1.00 1.01 1.02 1.02 1.02 1.02 1.04 1.04 1.02 1.02 1.05 1.13 1.19 1.22 1.28 1.31 1.29 1.26 1.25 1.26 1.26 1.23 1.22 1.24 1.28 1.30 1.29 1.27 1.22 1.18 1.15 1.09 1.02 0.97 0.91 0.84 0.82 0.79 0.79 0.77 0.77 0.78 0.80 0.81 0.79 0.78 0.78 0.78 0.80 0.81 0.80 0.78 0.77 0.74 0.69 0.66 0.61 0.57 0.56 0.55 0.53 0.52 0.51 0.51 0.52 0.53 0.53 0.52 0.49 0.46 0.43 0.41 0.38 0.34 0.32 0.33 0.35
1.02 1.01 1.00 1.00 1.00 1.00 1.01 1.01 1.02 1.02 1.02 1.02 1.03 1.05 1.05 1.06 1.04 1.09 1.14 1.14 1.12 1.15 1.18 1.21 1.24 1.25 1.25 1.26 1.26 1.26 1.26 1.27 1.27 1.27 1.26 1.24 1.21 1.18 1.12 1.01 0.91 0.88 0.87 0.87 0.85 0.82 0.79 0.79 0.80 0.81 0.82 0.81 0.79 0.78 0.79 0.81 0.83 0.83 0.82 0.80 0.79 0.76 0.72 0.66 0.60 0.59 0.58 0.57 0.55 0.53 0.52 0.51 0.53 0.55 0.55 0.52 0.51 0.49 0.46 0.44 0.43 0.39 0.33 0.31 0.33
1.02 1.00 1.00 1.01 1.03 1.05 1.06 1.06 1.06 1.05 1.04 1.04 1.07 1.07 1.08 1.05 1.06 1.09 1.11 1.11 1.11 1.09 1.07 1.16 1.22 1.25 1.28 1.29 1.28 1.27 1.27 1.26 1.23 1.22 1.20 1.19 1.16 1.13 1.01 0.93 0.90 0.90 0.89 0.89 0.87 0.86 0.83 0.83 0.83 0.83 0.83 0.82 0.81 0.80 0.81 0.83 0.84 0.84 0.84 0.82 0.78 0.74 0.68 0.63 0.59 0.57 0.58 0.58 0.56 0.54 0.53 0.53 0.53 0.53 0.54 0.54 0.53 0.52 0.50 0.49 0.46 0.41 0.35 0.32 0.34
1.02 1.01 1.03 1.04 1.05 1.05 1.06 1.07 1.09 1.10 1.09 1.09 1.09 1.07 1.06 1.06 1.07 1.07 1.07 1.07 1.08 1.10 1.09 1.12 1.18 1.21 1.26 1.26 1.25 1.24 1.23 1.22 1.21 1.20 1.16 1.14 1.11 1.06 1.00 0.96 0.94 0.93 0.90 0.89 0.89 0.87 0.85 0.86 0.88 0.87 0.86 0.85 0.83 0.82 0.82 0.83 0.85 0.85 0.84 0.82 0.78 0.72 0.65 0.60 0.59 0.58 0.56 0.55 0.55 0.54 0.53 0.54 0.55 0.53 0.51 0.51 0.51 0.53 0.53 0.52 0.49 0.44 0.39 0.35 0.33
1.06 1.04 1.04 1.06 1.06 1.07 1.07 1.07 1.08 1.10 1.11 1.11 1.11 1.09 1.08 1.09 1.08 1.08 1.06 1.05 1.08 1.09 1.10 1.12 1.16 1.17 1.17 1.19 1.22 1.21 1.19 1.18 1.18 1.14 1.11 1.05 0.99 0.97 0.96 0.96 0.94 0.90 0.90 0.91 0.91 0.89 0.88 0.89 0.90 0.89 0.89 0.87 0.85 0.84 0.83 0.83 0.84 0.84 0.82 0.79 0.77 0.72 0.66 0.61 0.59 0.59 0.58 0.54 0.53 0.54 0.56 0.56 0.55 0.54 0.53 0.51 0.51 0.51 0.52 0.51 0.48 0.44 0.40 0.35 0.30
1.02 1.03 1.03 1.03 1.05 1.06 1.06 1.07 1.08 1.09 1.09 1.11 1.12 1.13 1.12 1.11 1.10 1.10 1.10 1.11 1.11 1.11 1.12 1.15 1.15 1.17 1.17 1.18 1.17 1.18 1.17 1.12 1.06 1.03 1.01 1.01 1.02 1.01 0.98 0.97 0.97 0.94 0.94 0.93 0.92 0.91 0.91 0.90 0.91 0.91 0.90 0.88 0.87 0.87 0.86 0.85 0.85 0.83 0.81 0.78 0.73 0.69 0.65 0.61 0.59 0.57 0.56 0.55 0.54 0.55 0.56 0.56 0.55 0.54 0.53 0.52 0.51 0.51 0.51 0.50 0.47 0.43 0.37 0.32 0.31
1.00 1.02 1.04 1.04 1.05 1.06 1.07 1.06 1.08 1.08 1.09 1.10 1.11 1.13 1.13 1.12 1.12 1.11 1.12 1.12 1.12 1.12 1.12 1.14 1.15 1.19 1.21 1.21 1.20 1.18 1.10 1.08 1.05 1.02 1.02 1.01 1.00 1.01 1.01 0.99 0.98 0.96 0.95 0.94 0.94 0.94 0.93 0.92 0.92 0.90 0.90 0.89 0.88 0.88 0.88 0.86 0.84 0.81 0.79 0.75 0.70 0.66 0.62 0.60 0.57 0.56 0.56 0.57 0.57 0.56 0.56 0.56 0.56 0.55 0.53 0.52 0.51 0.51 0.49 0.48 0.46 0.42 0.36 0.30 0.28
0.99 1.00 1.01 1.04 1.05 1.04 1.03 1.05 1.07 1.07 1.09 1.10 1.12 1.13 1.15 1.14 1.13 1.13 1.13 1.14 1.13 1.13 1.14 1.16 1.19 1.22 1.23 1.22 1.22 1.21 1.16 1.09 1.04 1.00 0.98 0.98 1.00 1.02 1.03 1.00 0.98 0.99 1.01 0.99 0.97 0.96 0.95 0.93 0.93 0.91 0.90 0.88 0.88 0.87 0.87 0.85 0.82 0.79 0.76 0.73 0.69 0.65 0.61 0.59 0.58 0.58 0.59 0.59 0.59 0.58 0.58 0.58 0.56 0.54 0.52 0.52 0.52 0.50 0.50 0.49 0.45 0.38 0.32 0.29 0.27
0.98 0.99 0.98 1.00 1.04 1.03 1.01 1.00 1.04 1.08 1.09 1.11 1.12 1.13 1.14 1.14 1.14 1.14 1.14 1.15 1.14 1.15 1.15 1.15 1.17 1.20 1.20 1.20 1.18 1.15 1.10 1.06 1.04 1.05 1.05 1.06 1.04 1.03 1.03 1.05 1.05 1.04 1.01 0.99 0.98 0.97 0.98 0.98 0.95 0.91 0.88 0.87 0.87 0.87 0.86 0.85 0.82 0.78 0.74 0.71 0.67 0.63 0.60 0.60 0.61 0.61 0.61 0.61 0.60 0.59 0.58 0.57 0.57 0.56 0.55 0.54 0.53 0.52 0.50 0.47 0.42 0.35 0.30 0.28 0.28
0.98 0.99 1.00 1.00 1.01 1.04 1.03 1.02 1.03 1.02 1.02 1.04 1.08 1.13 1.15 1.15 1.13 1.13 1.13 1.13 1.13 1.13 1.13 1.13 1.15 1.15 1.14 1.14 1.12 1.11 1.05 1.04 1.05 1.05 1.04 1.03 1.03 1.02 1.02 1.02 1.03 1.03 1.03 1.02 1.01 1.02 1.01 0.98 0.95 0.91 0.89 0.88 0.89 0.89 0.87 0.83 0.83 0.78 0.75 0.70 0.65 0.62 0.61 0.62 0.65 0.64 0.63 0.62 0.61 0.60 0.59 0.58 0.57 0.56 0.56 0.54 0.53 0.52 0.49 0.44 0.38 0.33 0.30 0.27 0.27
0.96 0.96 0.96 0.98 0.99 1.01 1.05 1.04 1.01 1.01 1.00 0.99 1.04 1.06 1.08 1.09 1.11 1.10 1.10 1.09 1.08 1.07 1.07 1.08 1.07 1.05 1.05 1.05 1.05 1.04 1.03 1.03 1.02 1.02 1.01 1.01 1.00 1.00 1.01 1.02 1.02 1.02 1.03 1.05 1.05 1.03 1.00 0.99 0.95 0.91 0.89 0.89 0.86 0.85 0.84 0.82 0.75 0.73 0.68 0.66 0.64 0.63 0.64 0.64 0.65 0.66 0.64 0.62 0.61 0.61 0.59 0.58 0.57 0.56 0.55 0.54 0.53 0.50 0.46 0.42 0.37 0.31 0.27 0.27 0.28
0.94 0.94 0.94 0.95 0.96 0.98 1.00 1.06 1.07 1.06 1.03 1.02 1.00 1.00 1.01 1.03 1.04 1.06 1.08 1.07 1.08 1.09 1.08 1.08 1.06 1.06 1.05 1.05 1.05 1.03 1.02 1.02 1.02 1.01 1.01 1.01 1.01 1.02 1.03 1.03 1.04 1.04 1.05 1.04 1.04 1.03 1.01 1.00 0.96 0.92 0.89 0.89 0.86 0.81 0.78 0.77 0.75 0.74 0.70 0.68 0.67 0.66 0.67 0.68 0.70 0.70 0.69 0.65 0.62 0.61 0.60 0.58 0.56 0.55 0.54 0.54 0.52 0.48 0.43 0.39 0.35 0.30 0.27 0.27 0.29
0.89 0.91 0.91 0.91 0.92 0.93 0.96 0.99 1.03 1.05 1.07 1.06 1.05 1.04 1.04 1.06 1.06 1.06 1.06 1.05 1.06 1.06 1.05 1.05 1.05 1.04 1.04 1.03 1.03 1.02 1.01 1.01 1.01 1.01 1.01 1.01 1.01 1.02 1.03 1.03 1.04 1.04 1.04 1.04 1.04 1.03 1.01 1.00 0.96 0.92 0.90 0.87 0.85 0.81 0.78 0.77 0.75 0.74 0.74 0.74 0.73 0.72 0.73 0.76 0.77 0.75 0.72 0.68 0.64 0.62 0.61 0.59 0.55 0.54 0.54 0.53 0.49 0.44 0.39 0.36 0.34 0.30 0.28 0.27 0.28
0.80 0.82 0.86 0.87 0.88 0.90 0.93 0.95 0.97 0.99 1.02 1.02 1.05 1.06 1.06 1.06 1.06 1.05 1.05 1.05 1.04 1.04 1.04 1.04 1.04 1.04 1.03 1.02 1.00 0.99 0.99 0.98 0.98 0.99 1.00 1.01 1.01 1.01 1.01 1.01 1.01 1.00 1.01 1.02 1.03 1.02 1.00 0.97 0.94 0.89 0.87 0.85 0.82 0.81 0.79 0.78 0.79 0.78 0.78 0.79 0.79 0.78 0.80 0.80 0.80 0.77 0.74 0.71 0.68 0.63 0.61 0.58 0.56 0.54 0.51 0.46 0.42 0.40 0.37 0.34 0.30 0.29 0.29 0.28 0.29
0.67 0.70 0.73 0.78 0.82 0.85 0.88 0.90 0.91 0.93 0.93 0.94 0.95 0.96 0.97 0.98 0.98 1.00 1.00 1.00 1.01 1.02 1.02 1.02 1.01 1.01 1.01 1.02 1.02 1.01 1.00 0.99 0.98 0.97 0.97 0.96 0.96 0.96 0.95 0.95 0.94 0.95 0.95 0.95 0.95 0.95 0.95 0.94 0.93 0.91 0.89 0.87 0.84 0.83 0.84 0.82 0.82 0.82 0.82 0.81 0.81 0.83 0.83 0.81 0.78 0.76 0.73 0.70 0.67 0.64 0.62 0.59 0.57 0.54 0.50 0.46 0.39 0.35 0.34 0.31 0.29 0.27 0.29 0.29 0.29
0.64 0.64 0.66 0.69 0.75 0.77 0.81 0.84 0.87 0.87 0.85 0.86 0.90 0.92 0.94 0.95 0.97 0.98 0.98 0.98 0.99 1.00 1.00 1.00 0.99 0.99 0.98 0.97 0.97 0.97 0.97 0.96 0.96 0.96 0.96 0.96 0.96 0.96 0.95 0.95 0.94 0.93 0.93 0.92 0.94 0.94 0.96 0.97 0.96 0.96 0.94 0.92 0.89 0.88 0.89 0.88 0.86 0.85 0.83 0.82 0.83 0.82 0.79 0.75 0.74 0.72 0.69 0.68 0.67 0.65 0.64 0.61 0.57 0.54 0.51 0.47 0.42 0.35 0.30 0.29 0.29 0.28 0.27 0.28 0.28
0.64 0.67 0.67 0.66 0.65 0.68 0.74 0.76 0.81 0.83 0.87 0.90 0.89 0.87 0.88 0.89 0.91 0.93 0.95 0.95 0.95 0.95 0.95 0.95 0.94 0.93 0.92 0.92 0.91 0.90 0.89 0.89 0.90 0.92 0.93 0.95 0.95 0.95 0.95 0.94 0.94 0.94 0.94 0.93 0.92 0.91 0.90 0.90 0.91 0.92 0.91 0.91 0.90 0.88 0.87 0.85 0.82 0.81 0.81 0.81 0.79 0.75 0.71 0.70 0.70 0.70 0.70 0.70 0.70 0.67 0.64 0.60 0.56 0.53 0.48 0.44 0.41 0.36 0.30 0.27 0.27 0.28 0.28 0.28 0.28
0.62 0.63 0.65 0.66 0.66 0.66 0.65 0.65 0.68 0.72 0.76 0.76 0.78 0.79 0.81 0.84 0.86 0.88 0.89 0.88 0.88 0.88 0.88 0.89 0.88 0.88 0.87 0.87 0.86 0.86 0.84 0.84 0.85 0.87 0.88 0.89 0.90 0.91 0.91 0.91 0.91 0.91 0.90 0.90 0.89 0.88 0.87 0.86 0.87 0.87 0.88 0.88 0.89 0.88 0.87 0.84 0.85 0.86 0.86 0.84 0.78 0.71 0.68 0.70 0.72 0.73 0.73 0.71 0.68 0.64 0.61 0.58 0.55 0.51 0.48 0.44 0.40 0.37 0.31 0.28 0.28 0.28 0.28 0.29 0.28
Wind_Speed
36 34 33 33 33 32 31 30 30 29 29 27 26 26 25 24 24 24 24 24 23 23 22 22 21 21 20 19 19 19 19 19 18 17 17 17 16 16 16 16 16 16 16 16 16 16 16 17 17 17 17 18 18 18 19 19 19 19 20 20 20 21 21 21 21 20 20 21 23 23 24 25 24 22 22 22 23 24 24 24 25 26 25 25 24
36 35 33 32 33 32 31 30 30 29 29 29 28 26 25 25 24 24 24 24 23 23 23 22 22 21 21 20 20 19 19 19 18 17 17 17 16 16 16 16 16 16 16 16 16 16 16 17 17 17 17 18 18 18 18 19 19 19 20 20 20 20 20 21 21 21 21 22 23 23 24 24 23 21 22 22 23 24 24 24 24 25 24 25 25
37 35 33 32 33 33 32 31 30 30 30 29 28 27 25 25 25 24 24 24 24 24 23 23 23 22 21 21 20 20 19 19 19 18 17 17 17 16 16 16 17 17 17 17 17 17 16 17 17 17 17 18 18 18 18 19 19 19 19 19 19 19 20 20 20 21 21 22 23 23 24 23 22 21 21 22 23 24 24 23 24 24 24 25 25
38 36 34 32 33 33 32 31 31 31 30 29 29 28 26 25 25 25 24 24 24 24 24 24 23 22 22 21 21 20 20 19 19 18 18 17 17 17 17 17 17 17 17 17 17 17 17 17 17 17 17 18 18 18 18 18 18 18 18 19 19 19 20 20 20 21 21 22 23 23 22 22 21 21 21 22 23 23 23 23 24 24 24 25 25
39 37 35 33 34 34 34 32 32 31 30 30 30 29 27 26 26 25 25 25 25 24 24 24 24 23 22 22 21 21 20 19 19 19 18 17 17 17 17 17 17 17 17 17 17 17 17 17 17 17 17 18 18 18 18 18 18 18 18 18 19 19 19 20 20 21 21 22 22 21 21 21 20 20 21 22 22 22 22 23 23 24 24 25 25
40 39 37 35 35 36 35 34 33 32 31 31 31 30 28 27 27 26 26 25 25 25 25 25 24 23 23 22 22 21 21 20 19 19 18 18 18 18 18 18 18 18 18 18 18 17 17 18 17 17 17 17 18 18 17 17 17 18 18 18 18 19 19 20 21 21 21 22 21 20 21 20 20 20 21 22 22 22 22 23 24 24 24 25 25
41 40 38 37 36 36 36 35 33 32 32 32 32 31 29 28 28 27 26 25 26 26 26 25 25 24 24 23 23 22 21 21 20 19 18 18 18 18 18 18 18 18 18 18 18 18 18 18 18 17 17 17 17 17 17 17 17 17 17 18 18 19 19 20 20 20 21 21 20 20 20 20 20 20 20 21 21 21 22 23 24 24 24 25 25
42 40 38 38 37 36 36 35 34 33 32 32 32 31 30 30 29 27 27 26 26 26 27 26 25 25 24 23 23 23 22 21 20 19 18 18 18 19 18 18 18 18 18 18 18 18 18 18 18 18 17 17 17 17 17 17 17 17 18 18 18 19 20 20 20 20 21 21 20 19 19 19 20 20 20 21 21 21 21 23 24 24 25 25 25
42 41 39 38 37 36 35 35 34 33 32 32 33 32 31 30 29 28 28 27 26 26 27 26 26 25 25 24 23 23 22 22 21 20 19 19 19 19 19 19 19 19 19 19 19 19 18 18 18 18 17 17 17 17 17 17 17 17 18 18 19 19 20 20 20 20 20 20 20 19 19 19 19 19 19 20 20 21 22 23 24 24 24 25 25
42 41 40 39 37 36 36 35 35 34 33 33 33 33 31 31 30 29 28 27 27 26 27 27 26 26 25 24 24 23 23 22 21 21 20 19 19 19 19 19 19 19 19 19 19 19 19 19 18 18 18 17 17 17 17 17 17 18 18 18 19 19 20 20 20 20 20 20 19 19 19 19 19 19 19 20 20 21 22 23 23 24 24 25 25
43 41 40 38 37 37 36 35 35 34 33 33 33 32 31 30 30 29 28 28 27 27 28 28 27 27 26 25 24 24 23 23 22 22 21 20 19 19 19 20 20 20 20 19 19 19 19 19 19 18 18 18 18 17 17 17 18 18 18 19 19 19 20 20 20 20 20 20 19 19 19 19 18 19 19 20 21 21 22 22 23 24 24 24 24
43 41 40 38 37 37 35 35 35 34 33 34 33 32 31 30 30 29 28 28 28 28 28 28 27 27 27 26 25 25 24 24 23 23 22 21 20 20 20 20 20 20 20 20 20 20 19 19 19 19 19 19 18 18 18 18 18 18 19 19 20 20 20 20 20 20 20 19 19 19 18 18 18 19 19 20 21 21 22 22 23 23 24 24 24
42 40 39 38 38 37 35 35 34 33 33 34 33 33 32 31 30 29 28 28 28 28 29 29 28 28 28 27 26 25 25 24 24 23 22 22 22 21 20 21 21 21 21 21 20 20 20 19 19 19 19 19 19 18 19 18 18 19 19 20 20 20 20 21 20 20 20 20 19 19 18 18 18 19 20 20 21 21 22 22 23 23 23 24 24
41 39 38 38 38 36 35 35 34 33 34 34 33 33 32 31 30 30 29 29 29 28 29 29 28 29 29 28 27 27 26 25 24 24 23 23 22 22 21 21 21 21 21 21 21 20 20 20 19 19 19 19 19 19 19 19 19 19 19 19 20 20 20 21 21 20 20 20 19 18 18 18 18 19 20 20 21 21 22 22 23 23 23 24 24
40 39 38 38 37 36 36 36 35 34 34 34 33 33 32 31 30 30 29 29 29 29 30 29 29 29 30 29 28 27 26 25 25 25 24 23 23 22 22 22 22 22 22 22 21 21 20 20 20 19 19 19 19 19 19 19 19 19 19 19 20 20 21 21 21 21 20 20 19 18 18 18 19 19 20 20 21 22 22 23 23 23 24 24 24
40 39 38 37 37 37 37 36 35 34 34 34 33 33 32 31 30 29 29 29 29 30 30 29 29 30 30 30 29 28 26 26 25 25 24 23 23 23 22 22 22 22 22 22 22 22 21 21 20 20 20 20 20 20 19 19 19 19 19 19 20 20 21 21 21 20 20 19 19 18 18 18 19 19 20 20 21 22 22 22 23 23 23 23 23
40 39 38 37 37 37 36 35 35 35 34 33 33 33 32 31 31 30 29 29 29 30 30 29 29 30 31 31 30 28 27 26 26 25 25 24 23 23 23 23 23 23 23 23 22 22 22 22 21 21 21 21 20 20 19 19 19 19 20 20 21 21 21 21 20 20 19 19 19 19 19 19 19 19 20 21 21 22 22 22 22 22 22 22 22
41 39 38 37 37 37 36 35 35 34 33 32 33 33 32 31 31 30 30 30 30 30 30 30 30 31 32 32 31 29 28 27 27 26 25 25 24 23 23 23 23 23 23 23 23 23 23 23 23 22 22 21 21 21 20 20 20 20 21 21 21 21 21 20 20 20 19 20 20 19 20 20 20 20 21 21 22 22 22 22 22 22 22 22 21
40 39 38 37 36 36 36 35 34 33 32 32 33 32 31 31 31 30 30 30 30 30 30 30 30 31 32 32 32 31 29 29 28 27 26 26 25 24 24 24 24 24 24 24 24 24 24 24 24 23 23 22 22 21 21 21 21 21 21 21 21 21 21 20 20 20 20 20 20 20 20 20 21 21 21 22 22 22 22 22 22 22 22 21 21
39 38 37 36 36 35 35 35 34 33 32 32 32 31 31 31 31 30 30 30 30 30 30 31 31 31 32 32 32 31 30 29 29 29 28 27 26 25 25 25 24 25 25 25 25 25 25 25 25 25 23 22 22 22 22 22 22 21 21 21 21 21 21 20 20 20 20 20 20 20 20 21 21 21 21 21 22 22 22 22 21 21 21 21 21
38 37 36 36 35 35 34 34 33 32 32 31 31 31 31 31 31 31 31 31 31 30 30 31 31 31 32 32 32 32 31 30 30 30 29 29 28 27 26 25 25 25 25 25 26 26 26 26 26 25 24 23 22 22 22 22 22 21 21 21 21 20 20 20 20 20 19 19 19 20 20 20 20 21 21 21 21 22 22 21 21 21 21 21 21
36 36 36 35 34 34 33 33 32 32 31 31 31 31 32 32 31 31 32 32 31 31 31 32 32 31 32 32 33 33 32 31 31 31 31 30 29 28 27 26 26 25 25 26 26 26 27 27 26 25 24 23 22 22 22 22 21 21 21 21 20 20 20 19 19 19 19 19 19 20 20 20 20 20 20 21 21 21 21 21 21 21 21 21 21
35 35 34 33 33 32 32 32 32 32 32 32 32 32 32 32 32 32 32 31 31 31 32 32 32 32 32 32 33 33 33 32 32 32 32 31 31 30 28 27 26 26 26 26 25 26 27 27 26 24 23 22 22 22 21 21 21 21 22 21 20 20 20 19 18 18 19 19 20 20 20 20 20 20 20 20 20 20 20 20 21 21 21 22 22
34 33 32 32 32 32 32 32 32 32 32 32 32 32 31 31 31 31 31 31 31 31 32 32 32 32 32 31 32 32 33 33 32 33 33 32 31 31 29 27 27 26 26 26 26 26 26 26 25 24 23 22 22 21 21 21 21 21 21 21 20 20 20 20 19 19 19 19 20 20 20 21 20 20 20 20 20 20 20 20 21 22 22 22 22
32 32 31 31 31 31 31 31 31 31 31 31 32 31 30 31 31 31 31 30 30 30 31 32 32 32 32 31 31 32 32 33 32 32 33 32 31 31 29 28 27 27 26 25 25 25 24 23 23 22 22 22 21 21 20 21 21 21 21 21 20 20 20 20 19 19 19 20 20 21 21 21 21 21 20 20 20 20 20 21 22 22 22 22 23
30 30 30 30 30 30 30 31 31 31 30 31 31 31 31 31 32 31 31 30 30 29 30 31 32 32 31 31 31 31 32 32 32 32 33 32 31 30 29 28 27 27 26 25 24 22 21 21 21 21 21 21 20 20 21 22 22 21 21 21 21 21 20 20 20 19 20 20 21 21 22 22 21 21 20 20 21 21 22 22 22 22 22 22 22
28 28 28 28 28 29 30 29 29 30 30 30 31 31 32 32 32 31 31 31 30 30 30 31 32 32 31 31 31 32 32 32 32 33 33 32 31 30 29 28 27 26 25 24 23 21 20 20 20 20 20 20 20 21 21 22 21 21 21 21 21 21 21 21 21 20 20 21 21 21 21 21 21 20 20 20 21 22 22 22 22 22 21 21 22
26 26 27 27 27 28 29 29 29 30 31 31 31 31 32 33 33 32 32 32 32 32 32 32 33 33 32 32 32 32 33 34 34 34 34 33 32 30 29 27 27 26 25 24 23 21 20 20 19 20 20 20 21 21 22 22 21 21 21 21 21 21 21 21 21 21 21 21 22 21 21 21 21 20 20 20 21 21 21 21 21 21 22 22 22
24 25 26 27 28 28 29 30 31 31 32 32 32 32 33 33 33 33 34 34 34 34 33 33 33 33 33 33 33 33 34 34 35 35 35 33 32 31 29 27 26 25 25 24 23 21 20 20 20 21 21 21 21 21 22 22 21 21 21 21 21 21 21 21 22 22 22 22 22 22 21 21 21 21 20 20 20 20 20 20 21 21 21 22 22
24 25 26 26 27 28 28 29 30 31 31 31 32 33 33 33 33 33 34 34 35 34 34 34 34 33 34 34 34 34 34 34 34 35 35 33 32 31 29 28 26 25 25 24 22 21 21 21 21 21 21 21 22 22 22 22 22 21 21 21 21 21 21 21 22 22 22 22 22 22 21 21 21 20 19 19 20 20 20 20 20 21 21 22 22
23 24 25 25 26 27 28 29 30 30 30 31 31 32 32 33 33 33 33 34 35 35 35 35 34 34 34 34 34 33 33 32 33 34 34 32 31 30 29 28 27 26 25 24 23 22 21 21 21 21 21 21 22 22 22 22 22 22 21 21 22 22 21 21 21 21 22 22 22 22 21 20 20 19 19 19 19 20 20 20 20 21 21 22 22
22 23 24 25 25 26 27 28 28 29 30 30 31 32 32 33 33 33 33 34 34 35 34 34 34 33 33 33 33 32 31 32 32 34 34 33 31 30 29 28 27 26 25 25 24 23 22 22 21 21 21 21 21 22 22 22 22 22 22 21 22 22 22 22 22 22 22 22 22 22 21 20 20 20 19 19 19 20 20 20 20 21 21 22 22
23 23 24 25 25 26 26 27 27 28 29 30 31 32 33 33 33 33 32 32 33 34 34 34 34 33 32 32 33 32 31 31 31 32 33 33 32 31 29 28 27 26 25 25 24 23 23 22 22 21 21 22 21 21 22 22 22 22 21 22 22 23 23 23 23 22 22 22 22 22 22 21 21 21 20 20 20 20 20 21 21 21 22 22 22
24 24 25 25 25 26 26 27 27 27 28 29 31 32 33 33 33 33 32 32 32 33 33 33 33 33 32 32 32 30 29 29 30 30 31 32 31 30 28 27 26 26 26 25 24 24 23 23 23 22 22 22 22 22 23 23 22 21 21 22 22 23 23 23 23 23 23 23 22 22 22 22 22 21 21 21 21 21 21 21 21 22 22 23 22
23 24 24 25 25 26 26 27 27 27 28 28 29 31 32 33 33 32 32 32 32 31 32 32 32 32 32 31 30 29 28 28 29 29 30 30 30 29 27 26 25 25 25 25 24 24 24 24 24 23 23 23 23 23 24 23 23 22 22 22 22 23 23 23 24 24 23 23 23 22 22 22 23 22 22 22 21 21 21 21 22 22 23 23 22
21 21 22 23 24 25 25 26 27 27 28 28 29 30 31 32 32 32 32 32 32 31 30 31 31 30 30 29 28 28 28 27 27 27 27 28 28 28 27 26 25 25 25 25 25 25 24 24 24 24 24 24 24 24 24 24 24 23 23 22 22 23 23 23 23 23 23 23 23 23 23 23 23 23 23 22 22 22 22 22 22 23 23 23 23
18 19 20 21 22 23 24 25 26 26 26 27 28 29 29 30 31 31 31 31 31 30 29 30 30 29 28 28 27 27 26 26 26 26 26 26 27 27 27 26 26 25 25 26 26 26 25 25 25 25 25 25 25 25 25 25 24 23 23 23 23 23 23 23 22 23 23 23 23 23 24 24 24 23 23 22 23 23 22 22 23 23 24 24 24
15 16 17 18 20 20 21 22 23 23 24 25 26 26 27 28 29 29 29 29 29 28 28 28 29 28 28 28 28 27 26 25 25 25 25 25 26 26 26 25 25 25 25 25 26 26 26 26 26 26 26 26 25 25 25 25 24 24 24 24 24 23 23 23 22 22 23 24 24 24 24 24 24 24 23 23 23 23 23 23 24 24 24 24 24
12 13 14 15 16 17 18 18 19 19 20 22 23 24 24 25 26 26 27 26 26 26 26 26 27 27 27 28 28 27 26 25 24 25 25 26 26 26 25 25 25 25 25 25 25 25 26 26 26 26 26 26 25 26 26 25 25 24 24 24 24 24 23 23 24 24 24 25 25 24 24 24 24 24 24 24 24 24 23 24 24 25 25 24 24
10 10 11 11 12 13 14 15 16 17 17 19 20 22 22 22 23 24 24 24 24 24 24 24 24 24 25 26 26 26 25 24 24 24 24 25 25 26 26 25 25 25 25 25 25 26 26 26 26 26 26 26 26 26 26 26 25 25 24 24 24 24 24 24 24 25 25 25 25 25 25 25 25 25 25 24 24 24 24 24 25 26 26 25 24
9 10 10 10 10 11 12 13 14 15 15 16 18 19 19 20 20 21 21 22 22 22 22 22 22 23 23 24 25 25 24 24 24 24 24 24 25 25 25 25 24 25 25 25 25 25 26 26 26 26 26 26 26 26 27 27 26 25 24 24 24 24 24 24 24 24 25 25 25 25 25 25 25 25 25 25 25 24 24 25 26 26 26 25 24
9 10 10 10 10 10 10 10 11 12 13 13 14 16 16 17 18 18 18 19 20 21 20 20 21 21 22 23 24 24 24 23 24 24 24 24 25 26 25 25 24 25 25 25 26 26 26 26 26 26 26 26 26 26 26 26 26 25 24 24 25 25 25 25 24 24 25 25 25 25 26 26 26 26 26 25 25 25 26 26 26 26 25 24 23
9 9 10 10 10 10 9 9 9 10 10 10 11 12 13 14 15 16 16 17 18 19 19 19 19 20 21 21 23 23 23 23 23 24 23 24 25 26 26 26 26 26 26 26 26 26 26 26 26 26 26 25 25 26 26 26 26 26 25 25 25 25 25 25 25 24 25 25 25 26 26 26 26 26 26 26 26 26 26 26 26 26 25 24 23
9 9 9 9 9 9 9 9 9 9 9 9 9 10 10 11 12 14 15 16 16 16 17 17 18 18 19 20 21 22 22 23 23 24 24 24 25 26 26 26 26 27 27 27 27 26 26 26 26 26 26 25 26 26 26 26 26 26 26 26 26 25 25 25 25 25 25 25 25 25 25 25 25 25 26 26 26 26 26 26 26 26 25 24 23
9 9 9 8 8 8 8 9 9 9 9 10 10 10 11 11 11 11 12 14 15 15 15 15 16 17 17 19 20 21 22 22 23 24 24 24 24 25 25 26 26 27 28 28 28 27 27 27 27 27 27 26 26 26 26 26 27 27 27 27 26 26 25 26 26 25 25 25 25 25 25 25 25 26 26 26 26 26 26 26 26 25 25 24 23
9 9 9 9 9 9 9 9 9 9 9 10 10 11 11 12 12 11 12 13 14 15 15 15 16 17 17 18 19 20 21 22 22 23 24 24 24 25 25 26 27 28 28 29 29 28 27 27 27 28 28 27 27 27 27 27 27 27 27 27 26 26 26 27 27 26 26 26 26 26 26 26 26 26 26 26 26 26 26 26 26 25 25 24 23
9 9 9 9 9 9 9 10 10 10 10 10 10 10 11 11 12 13 13 13 14 15 15 16 17 17 18 18 19 20 22 22 23 23 24 24 25 25 25 26 27 27 28 28 28 28 28 28 28 28 28 27 27 27 27 27 27 27 27 26 26 27 27 28 27 27 27 27 27 27 27 26 26 26 26 26 26 26 26 26 26 25 25 25 24
9 9 9 10 9 9 9 10 10 11 11 11 11 11 11 11 11 12 13 14 15 15 16 17 18 18 18 19 19 20 22 23 24 24 24 25 25 25 25 25 25 26 26 27 27 27 28 28 28 28 28 27 27 27 27 27 27 27 27 27 28 29 29 28 28 28 28 28 28 28 27 27 26 26 26 26 26 26 26 26 26 26 25 25 24
8 9 9 10 10 9 9 9 9 10 10 11 12 12 11 11 11 11 12 13 14 15 16 16 17 17 17 18 19 19 20 21 22 23 24 24 25 25 25 25 26 26 27 27 27 27 28 28 29 29 28 29 29 28 28 28 28 29 29 30 30 30 30 29 29 28 28 28 28 28 28 27 26 26 27 27 27 27 27 26 26 26 26 25 25
8 8 9 9 9 10 10 9 10 10 10 11 11 12 12 13 13 13 13 13 14 15 15 16 16 16 17 18 18 19 20 20 21 22 22 23 24 24 25 25 26 26 27 27 27 28 28 28 29 29 30 30 30 29 29 29 30 30 30 30 30 30 30 29 29 29 28 28 27 27 27 27 27 27 28 28 27 27 27 27 26 26 26 25 25
9 9 9 9 9 10 10 10 10 11 12 12 12 13 14 14 15 15 15 15 15 16 16 17 17 18 18 19 20 20 20 21 21 21 22 22 23 24 25 25 26 26 27 27 28 28 29 29 29 29 29 30 30 31 31 31 31 30 30 30 30 30 29 29 29 29 28 27 26 26 26 27 28 28 28 28 28 28 27 27 27 26 26 26 25
Wind_Direction
225 227 229 229 229 229 229 231 233 236 238 240 241 242 243 245 247 248 248 249 250 249 248 247 247 248 248 248 248 249 250 252 254 255 257 259 260 262 261 259 259 259 260 260 261 262 261 260 261 262 264 267 269 271 273 274 276 278 282 284 286 287 288 290 292 296 299 299 300 303 305 307 308 306 305 307 310 313 315 316 317 319 320 320 319
226 228 229 229 227 227 229 231 233 235 237 239 241 242 242 243 245 247 247 247 248 248 247 246 246 246 246 246 247 248 250 252 253 254 256 257 259 260 260 259 258 258 260 260 260 261 261 261 262 263 266 267 269 272 274 275 277 279 282 284 286 288 288 289 292 295 297 299 301 303 305 306 306 306 306 308 311 313 315 316 317 318 319 321 321
226 228 229 228 226 227 229 231 233 234 236 238 240 241 242 243 244 246 246 246 246 246 246 245 244 244 244 245 246 248 250 251 253 253 254 255 257 259 259 258 257 258 259 260 260 260 261 261 263 264 266 267 269 272 275 276 279 281 282 284 285 287 287 288 292 295 297 299 301 302 304 304 304 305 307 309 312 314 316 316 317 318 319 320 320
226 227 228 227 226 228 230 231 233 235 236 238 239 240 241 242 243 245 246 246 245 245 245 244 243 243 243 243 245 247 249 251 252 252 253 254 256 258 259 258 257 258 259 259 259 260 260 261 263 264 265 267 269 272 274 276 278 279 281 283 284 286 287 288 292 294 296 299 301 302 303 303 303 305 308 311 313 314 316 317 318 319 319 320 320
226 227 228 227 228 230 231 231 234 235 236 237 238 239 240 240 242 244 246 246 245 244 244 243 242 241 241 242 244 246 248 250 250 251 252 253 256 258 258 258 258 258 258 259 259 259 260 261 263 264 264 266 269 271 273 274 275 278 280 282 283 285 287 290 293 294 296 299 301 302 302 302 304 306 309 311 312 313 315 317 319 319 320 320 320
227 228 229 229 231 232 231 231 234 235 236 236 237 238 239 239 240 243 245 245 245 244 242 241 241 240 240 241 243 245 247 249 250 250 251 253 255 257 258 257 258 258 258 259 259 259 260 261 262 263 264 265 267 270 271 272 274 277 278 281 283 285 288 292 294 294 296 299 301 301 301 301 304 307 309 310 312 314 316 317 318 319 320 321 320
228 229 230 230 232 232 231 231 233 235 235 235 236 237 238 238 239 241 244 244 244 243 241 239 239 238 239 240 242 245 247 248 250 250 250 252 254 256 256 257 258 258 259 258 258 259 260 261 262 263 263 265 266 268 269 271 274 276 277 280 283 286 290 293 294 295 298 300 300 301 301 301 304 307 308 310 312 314 316 318 319 319 320 321 321
228 229 230 230 232 232 231 230 232 234 234 234 235 236 236 237 238 241 243 243 243 242 239 237 237 237 238 240 242 244 246 247 249 249 250 252 253 254 255 256 257 258 258 258 258 259 259 260 262 262 263 264 265 267 268 270 273 275 278 281 284 286 289 292 294 296 298 299 299 300 300 301 304 306 307 310 312 314 316 318 319 319 320 321 321
228 229 230 230 231 231 230 230 231 233 233 232 233 235 235 236 237 239 241 242 243 242 239 236 236 236 237 239 241 243 245 247 248 248 249 251 252 253 255 256 257 258 258 258 258 258 259 260 262 261 262 264 265 267 268 270 273 275 278 282 284 285 288 291 294 297 297 297 298 299 300 300 303 304 306 309 312 314 316 317 318 319 320 321 321
227 228 229 230 230 230 229 229 230 231 231 231 232 233 234 235 236 238 239 240 241 241 238 236 235 235 235 238 240 243 246 247 247 246 248 250 251 253 255 256 257 257 258 257 257 258 258 260 261 261 262 264 265 266 268 271 275 277 279 281 283 284 287 291 294 295 296 296 297 298 299 300 302 303 305 308 310 313 315 317 318 320 321 322 322
227 227 228 229 228 227 227 228 228 229 229 229 231 232 232 233 235 236 238 239 240 240 237 235 234 234 235 237 239 242 246 247 245 245 247 249 251 254 255 256 257 257 257 257 257 258 258 259 260 261 262 264 265 266 268 271 275 278 279 281 284 286 289 290 292 294 295 296 297 297 297 299 300 302 305 307 309 312 314 316 318 320 321 322 323
225 226 226 226 225 225 225 226 226 227 227 228 230 231 231 232 234 235 237 238 239 239 237 234 234 234 235 236 239 243 246 246 245 245 246 248 250 254 256 256 257 257 256 256 256 257 257 258 260 262 262 263 263 265 267 271 275 277 279 281 284 287 290 291 292 293 294 296 297 296 296 298 299 301 304 306 309 311 314 316 317 319 321 322 323
223 223 223 224 223 223 224 224 225 226 227 229 229 229 229 231 234 235 237 238 238 238 236 234 233 234 234 236 239 243 246 247 246 245 246 247 250 254 257 257 257 257 256 255 255 256 256 258 260 262 262 262 263 264 266 270 274 276 279 281 284 287 290 291 292 293 294 295 295 294 294 297 299 300 302 305 308 310 313 315 317 318 320 321 322
220 220 221 221 222 222 222 223 224 226 228 229 228 228 230 232 234 236 236 237 237 237 235 233 233 234 235 237 239 242 245 247 246 245 246 247 249 254 257 258 257 257 255 255 255 255 256 257 259 261 261 261 262 264 265 268 272 275 278 282 285 287 289 289 289 290 292 293 293 292 293 296 298 300 301 304 307 310 312 315 316 318 320 320 321
217 218 219 220 221 221 222 222 224 227 228 228 228 229 231 233 234 235 236 237 237 236 234 233 234 235 235 237 239 242 245 246 245 245 246 247 249 254 258 258 257 257 255 255 254 254 255 257 259 260 261 261 261 262 264 268 273 276 278 282 286 288 288 287 286 287 289 290 290 291 292 294 297 298 300 303 306 309 311 313 315 317 319 319 320
216 217 218 219 220 221 222 224 226 228 228 228 229 229 230 232 232 233 235 236 236 235 234 234 235 235 235 236 239 241 244 246 245 245 245 247 249 253 257 258 257 256 255 254 253 253 254 257 259 260 260 260 260 260 264 269 273 276 279 282 286 287 287 286 284 285 287 288 288 290 292 295 297 298 301 304 306 309 311 313 314 315 317 318 320
215 216 218 219 220 221 223 225 227 228 228 229 229 230 230 231 231 232 235 236 236 235 234 235 235 235 235 236 238 241 244 245 245 245 244 246 249 253 256 257 256 255 254 253 252 253 254 256 258 260 260 259 258 259 263 270 274 277 279 282 284 285 285 284 283 283 285 286 287 289 292 294 295 297 300 303 305 309 311 312 314 315 316 317 320
214 216 218 220 221 222 224 226 227 228 228 229 230 230 230 230 231 234 236 236 235 235 235 236 236 236 236 237 238 241 244 245 245 245 244 245 248 252 256 256 255 254 253 252 252 253 255 255 257 259 260 259 258 258 263 270 274 276 278 280 282 283 283 284 282 281 282 283 285 287 290 293 294 295 298 300 303 306 308 309 312 315 315 316 319
215 217 218 220 222 223 225 226 227 228 229 230 230 230 231 231 233 237 238 237 236 236 237 238 238 237 237 238 239 242 244 245 244 244 244 244 247 252 255 256 256 254 253 252 252 253 255 255 255 258 260 259 258 259 263 268 273 276 278 279 281 281 282 283 281 280 281 282 284 287 290 291 292 294 296 299 302 304 305 306 309 311 313 314 317
215 217 219 220 222 223 225 226 227 228 229 229 230 231 233 234 236 238 239 238 237 238 239 240 240 239 239 239 240 242 244 244 244 244 244 245 246 250 255 256 256 255 253 252 252 253 255 255 254 256 258 257 257 260 264 267 271 276 277 278 280 281 282 282 281 280 281 282 284 287 290 291 292 294 296 299 301 302 303 303 305 307 309 311 314
215 217 219 221 222 223 225 225 226 228 229 230 232 234 235 235 236 238 239 239 238 239 240 240 241 240 240 240 241 242 243 243 243 243 244 245 246 249 254 255 256 255 254 253 254 254 254 254 254 255 255 255 257 260 263 266 271 275 276 277 279 282 282 282 281 281 282 284 285 288 291 292 294 296 298 300 302 302 302 302 302 304 305 308 311
216 217 218 220 221 222 223 225 227 229 231 232 233 235 235 236 237 239 240 239 239 239 240 240 241 241 241 241 242 242 242 243 243 243 244 244 245 248 253 255 255 255 254 254 255 255 255 254 254 253 252 254 257 260 263 266 270 273 275 276 279 281 281 281 282 282 282 284 286 289 291 293 295 297 299 301 302 302 302 302 302 302 303 304 307
215 216 217 217 218 220 222 225 227 229 231 231 233 235 236 237 238 239 240 239 239 240 240 241 242 242 243 244 244 244 244 244 243 243 243 243 244 247 251 254 254 254 255 255 256 258 256 253 250 250 250 253 257 260 263 266 269 272 274 276 277 278 279 280 282 283 283 284 286 289 291 292 295 298 300 301 302 302 301 301 302 303 303 303 304
212 213 214 215 217 220 223 225 227 228 230 231 233 235 236 236 237 237 238 239 240 241 241 242 243 244 245 246 246 246 245 245 244 243 242 242 243 245 249 252 253 253 255 255 258 260 257 249 245 247 250 253 258 260 262 265 269 271 273 274 276 277 277 277 280 282 283 284 287 289 290 292 295 297 299 301 302 301 301 301 302 303 303 303 304
210 212 214 217 220 222 224 225 226 229 231 233 235 236 236 236 236 237 238 239 240 242 242 242 243 245 247 248 248 246 245 245 243 242 242 242 243 244 247 250 251 252 254 255 259 260 252 243 242 247 250 254 258 261 262 265 268 271 272 273 275 276 274 274 277 280 282 285 287 288 290 292 294 296 298 299 299 298 299 301 302 303 303 303 304
211 214 216 218 221 222 223 226 229 231 234 235 237 238 238 237 238 239 239 240 241 242 243 243 244 246 248 249 248 246 246 244 242 241 242 242 243 244 245 247 249 251 253 255 256 254 246 242 245 249 252 255 259 262 264 266 268 270 271 272 274 274 272 272 275 279 282 285 287 288 290 293 294 295 296 296 296 296 298 300 302 303 304 304 305
213 215 217 220 222 224 226 229 232 234 236 238 238 240 240 239 240 240 240 241 242 243 244 244 246 247 249 249 247 245 246 244 242 241 242 242 242 242 244 245 247 250 251 251 249 246 244 245 247 250 254 257 260 262 266 268 269 270 270 271 273 273 271 271 274 278 282 285 287 288 290 292 293 294 295 295 296 296 297 298 300 302 303 304 305
216 219 221 224 227 229 231 234 235 237 239 239 239 240 241 241 241 242 242 243 243 243 244 245 246 248 249 249 248 247 246 244 242 241 241 241 240 240 240 242 245 247 247 245 243 242 243 244 247 251 254 258 260 264 267 268 269 269 269 271 272 270 270 271 274 277 281 284 285 286 288 290 291 292 293 295 296 296 296 297 299 301 302 303 305
221 224 227 229 231 234 236 237 238 240 241 240 241 242 242 242 243 244 245 245 244 244 245 246 247 249 249 249 249 247 246 245 244 241 239 238 237 236 237 240 242 243 242 239 238 239 241 243 247 251 255 258 262 265 267 267 267 268 268 269 269 268 269 272 274 276 279 281 282 283 286 288 290 291 292 294 295 295 295 296 299 300 301 302 303
226 229 231 233 234 237 239 239 240 241 242 242 242 243 243 243 245 246 247 246 246 246 247 248 248 249 250 250 249 247 246 246 244 240 237 236 235 235 237 240 239 238 236 234 235 238 241 245 250 253 256 259 262 264 265 266 267 267 267 266 265 266 269 272 274 277 278 278 279 281 283 286 288 289 291 293 294 295 295 296 298 300 301 301 301
229 232 235 237 238 240 241 241 242 242 243 243 243 243 243 244 246 248 248 248 247 247 249 249 249 249 251 250 249 247 246 246 242 237 235 233 232 233 237 238 236 234 233 233 235 240 244 248 252 255 257 260 262 264 266 267 267 266 265 264 264 266 269 272 274 276 277 277 278 280 281 283 285 287 289 292 294 295 296 297 298 299 299 300 300
232 235 237 239 241 242 243 244 244 245 245 244 243 243 244 245 246 248 249 249 247 247 248 248 248 250 251 249 246 247 247 245 240 235 231 229 230 233 235 234 233 233 233 234 237 242 246 249 253 256 258 261 263 265 266 267 267 266 264 263 264 266 269 270 272 275 277 277 278 278 279 281 284 286 288 290 292 294 296 298 299 299 299 299 298
236 238 241 243 244 244 244 244 245 246 246 245 245 245 245 246 246 248 249 250 248 246 247 247 248 250 251 247 245 247 246 242 237 231 227 227 231 232 232 230 230 231 232 235 240 245 247 250 253 257 260 263 264 265 266 267 268 266 264 263 265 268 269 270 272 275 276 277 277 278 279 280 282 284 285 287 289 292 294 296 298 299 298 298 298
240 242 245 246 247 246 245 244 245 246 247 247 246 247 247 246 246 246 247 248 247 246 247 247 248 250 249 246 244 243 241 235 231 227 226 228 230 229 227 228 230 232 234 238 243 246 248 250 254 259 262 264 264 265 266 267 266 265 264 265 267 269 271 271 272 274 276 275 276 277 278 280 281 282 283 284 286 289 291 294 296 297 298 298 297
245 246 247 248 248 248 246 246 246 247 248 248 248 248 247 246 246 246 247 248 248 247 247 248 248 247 245 243 240 237 233 230 229 227 227 228 227 224 225 228 231 234 238 241 244 246 248 252 256 259 262 263 264 264 265 265 264 263 264 267 269 271 272 273 273 273 274 274 274 276 278 280 281 281 281 282 283 285 288 292 294 296 297 297 296
249 249 249 248 248 248 248 248 249 249 249 249 249 249 248 247 246 246 247 249 249 249 249 248 246 243 241 238 234 229 227 226 227 226 226 225 222 222 225 230 233 236 239 242 244 246 249 253 257 260 262 264 264 264 264 263 262 263 265 268 271 273 274 274 274 273 272 272 273 275 277 279 280 280 280 280 281 283 285 288 292 294 296 296 294
251 250 250 250 250 250 250 250 251 251 251 251 250 250 249 248 248 248 248 249 248 248 248 246 241 238 236 233 228 224 223 224 223 223 223 222 221 223 227 231 234 237 239 242 245 247 249 253 257 260 262 263 263 263 263 262 262 264 266 268 271 273 274 275 274 273 272 271 272 274 276 278 278 278 278 279 280 282 283 285 289 293 294 294 293
251 251 252 252 253 253 252 252 251 251 251 251 250 250 249 248 248 248 248 248 247 246 243 240 237 234 232 229 227 224 223 222 221 221 222 221 221 224 228 232 235 238 241 244 246 248 251 254 258 261 263 263 263 262 262 261 262 264 265 268 270 273 274 273 273 272 272 272 272 274 275 276 276 276 277 278 279 281 282 284 288 291 293 293 291
249 251 253 255 254 254 254 253 252 251 250 249 249 248 248 248 247 246 245 245 244 242 238 235 233 231 229 227 226 224 221 220 220 221 221 221 223 226 230 234 237 241 244 246 248 251 253 256 259 262 263 264 264 262 261 261 262 263 264 267 270 272 273 272 271 271 271 272 273 273 274 275 275 276 276 277 278 279 281 284 287 289 290 291 290
254 254 256 256 254 252 252 252 251 251 250 248 247 247 246 245 244 243 242 241 239 236 233 230 228 225 223 221 220 219 218 219 220 220 220 223 226 229 232 235 239 241 244 247 249 252 256 259 262 263 264 264 264 262 261 260 261 262 264 267 269 271 272 272 271 271 271 272 272 273 273 274 274 275 276 276 277 278 280 283 285 287 288 288 288
260 259 259 258 256 254 252 251 251 252 250 247 245 245 244 243 242 241 239 236 233 231 229 227 224 222 220 218 217 218 219 220 221 222 225 227 229 231 233 236 239 241 244 248 251 255 258 260 262 264 265 265 264 263 262 261 261 262 264 266 268 270 271 271 271 270 271 271 272 273 273 273 274 275 275 276 276 278 280 283 285 286 286 286 284
266 264 262 260 260 258 255 253 252 250 246 243 243 242 240 239 238 235 232 230 228 227 226 225 224 222 221 218 218 221 224 226 228 230 233 234 235 235 237 239 242 246 249 253 256 258 259 260 262 263 265 265 265 264 263 262 262 262 263 266 267 268 270 270 270 270 270 271 272 273 273 273 273 274 275 275 276 277 280 283 284 285 284 283 281
270 268 265 262 260 258 255 253 251 249 245 243 239 234 230 229 229 228 226 225 225 224 222 221 220 219 219 219 219 222 226 229 233 235 237 238 239 240 242 245 248 251 254 257 259 260 260 260 262 264 265 265 265 264 264 263 262 262 264 266 267 268 268 269 270 270 270 271 272 273 272 273 273 274 274 275 276 278 280 282 283 283 282 280 278
267 267 265 263 261 259 255 252 249 246 242 238 233 227 223 223 225 225 222 219 218 218 218 216 215 217 219 221 223 225 229 233 236 238 238 239 240 242 244 248 251 253 256 257 259 259 260 261 263 264 265 265 265 264 264 264 263 263 264 265 267 267 267 268 269 270 271 272 272 273 273 273 273 273 274 275 277 278 280 281 281 280 278 277 276
268 266 264 262 260 258 254 249 246 243 241 238 235 232 230 229 228 225 218 213 213 215 216 216 217 221 224 226 227 228 232 235 237 239 240 241 243 245 248 251 253 254 255 256 258 259 260 261 263 263 264 264 264 264 264 263 262 262 263 265 266 267 267 267 268 270 271 272 272 273 273 273 272 272 274 276 277 278 279 280 279 278 276 274 274
274 270 267 263 260 256 252 247 244 242 241 240 239 238 236 233 231 229 225 221 220 221 223 225 228 231 232 232 232 233 235 237 239 241 243 245 248 250 252 253 254 255 256 257 258 259 259 260 262 262 263 263 263 263 263 262 261 261 262 264 265 267 268 268 268 269 270 271 272 273 272 272 272 272 273 275 277 278 279 278 277 276 274 272 271
275 272 270 268 263 259 255 251 246 243 241 240 240 240 238 235 233 232 230 230 231 231 233 236 239 241 242 242 241 240 241 242 243 245 247 249 251 252 254 255 256 257 258 259 259 259 258 259 261 262 262 262 262 262 262 261 260 260 262 263 265 267 268 268 268 269 270 271 272 272 272 272 272 272 273 275 277 278 278 277 275 274 273 271 270
279 275 273 271 267 263 259 256 252 249 246 243 243 242 241 240 238 237 236 236 237 238 240 243 246 247 249 249 249 248 247 247 248 250 251 252 253 254 256 257 258 259 261 262 262 261 261 261 262 262 262 262 261 261 261 260 260 261 262 264 265 266 267 268 268 269 270 270 270 270 270 271 271 272 274 276 277 277 276 276 274 273 271 270 269
285 280 275 272 270 267 265 262 259 256 252 248 245 245 245 244 241 240 239 239 240 242 245 248 250 251 251 252 252 253 253 254 254 255 256 256 256 257 258 259 260 262 263 264 264 263 263 263 263 263 263 262 261 261 260 260 261 262 264 265 265 266 266 267 268 269 269 270 270 270 269 269 270 272 276 278 278 276 275 274 273 272 270 269 268
289 284 278 275 272 269 266 262 258 255 253 250 248 248 247 246 243 242 243 244 245 247 249 252 253 255 256 257 258 258 259 259 259 259 259 259 260 260 260 261 262 262 263 264 264 265 265 265 264 264 264 263 263 262 262 262 262 263 264 265 266 266 265 265 266 267 268 269 269 268 268 269 271 274 276 277 277 276 274 272 271 270 269 268 267
288 285 281 279 277 274 271 267 262 258 256 256 255 254 253 252 251 251 252 252 253 254 256 258 258 259 261 263 264 265 265 265 264 263 263 263 263 263 263 263 263 263 263 264 265 266 267 267 267 266 266 265 264 264 263 263 263 264 264 265 265 265 264 264 264 265 266 266 267 268 269 271 273 275 276 276 276 275 273 270 269 268 268 268 267